Regional Weather Roundup
Issued by NWS

Home | Current Version | Previous Version | Graphics & Text | Print | Product List | Glossary On
Versions: 1 2 3 4 5 6 7 8 9 10 11 12 13 14 15 16 17 18 19 20 21 22 23 24 25 26 27 28 29 30 31 32 33 34 35 36 37 38 39 40 41 42 43 44 45 46 47 48 49 50
000
ASUS43 KBIS 010320
RWRND

NORTH DAKOTA REGIONAL WEATHER ROUNDUP
NATIONAL WEATHER SERVICE BISMARCK ND
1000 PM CDT SUN AUG 31 2014

NOTE: "FAIR" INDICATES FEW OR NO CLOUDS BELOW 12,000 FEET WITH NO
SIGNIFICANT WEATHER AND/OR OBSTRUCTIONS TO VISIBILITY.


NDZ001>003-009>011-017-010400-
NORTHWEST NORTH DAKOTA

CITY           SKY/WX    TMP DP  RH WIND       PRES   REMARKS
WILLISTON      MOCLDY    58  52  80 CALM      29.75S
MINOT          LGT RAIN  59  53  80 S3        29.70F
MINOT AFB      LGT RAIN  59  56  92 W7        29.70F
$$

NDZ018>021-031>035-040>046-010400-
SOUTHWEST NORTH DAKOTA

CITY           SKY/WX    TMP DP  RH WIND       PRES   REMARKS
BISMARCK       MOCLDY    62  58  86 NW3       29.71S
DICKINSON      CLOUDY    57  51  80 NW5       29.78R
GARRISON         N/A     59  55  87 NW10      29.73R
HETTINGER ARPT CLOUDY    56  50  80 SW12      29.80F
$$

NDZ004>008-012>016-024-026-027-054-010400-
NORTHEAST NORTH DAKOTA

CITY           SKY/WX    TMP DP  RH WIND       PRES   REMARKS
GRAND FORKS    PTCLDY    61  56  83 NW6       29.60R
GRND FRKS AFB  PTCLDY    62  57  84 NW7       29.62R
DEVILS LAKE    CLEAR     57  52  82 NW10      29.65S
$$

NDZ022-023-025-028>030-036>039-047>053-010400-
SOUTHEAST NORTH DAKOTA

CITY           SKY/WX    TMP DP  RH WIND       PRES   REMARKS
FARGO          PTCLDY    63  60  90 N5        29.61S
JAMESTOWN      PTCLDY    62  57  83 NW10      29.66R
$$



USA.gov is the U.S. government's official web portal to all federal, state and local government web resources and services.